Date String (YYYY-MM-DD hh:mm:ss) UTC,Instrument flags,Ambient pressure (hPa),Sample flow (lpm),Bypass flow (lpm),Sample temperature (°C),Ambient temperature (°C),ASC tube jacket temperature (°C),LED temperature (°C),Box temperature (°C),Sample RH (%),Span deviation,Mass concentration (μg/m³),Mass concentration (μg/m³),Mass concentration (μg/m³)
DateTimeUTC,F1_M11,P_M11,Q1_M11,Q2_M11,T1_M11,T2_M11,T3_M11,T4_M11,T5_M11,U1_M11,ZSPAN_M11,X0_M11,X2_M11,X1_M11
2021-10-23 21:00:00,,0816.0,4.99,0.00,29.9,29.3,00.0,39.0,31.7,06.1,0000.0,0009.52,0002.55,0001.48
2021-10-23 21:01:00,,0816.0,5.01,0.00,29.9,29.3,00.0,39.0,31.7,06.2,0000.0,0009.98,0002.64,0001.50
2021-10-23 21:02:00,,0816.0,5.00,0.00,29.9,29.3,00.0,39.1,31.7,06.3,0000.0,0010.09,0002.65,0001.51
2021-10-23 21:03:00,,0816.0,4.99,0.00,30.0,29.3,00.0,39.1,31.7,06.4,0000.0,0010.51,0002.64,0001.51
2021-10-23 21:04:00,,0816.0,5.00,0.00,30.0,29.3,00.0,39.1,31.7,06.4,0000.0,0010.56,0002.63,0001.52
2021-10-23 21:05:00,,0816.0,5.00,0.00,30.0,29.3,00.0,39.1,31.8,06.2,0000.0,0010.69,0002.56,0001.52
2021-10-23 21:06:00,,0816.1,5.02,0.00,30.0,29.3,00.0,39.1,31.8,06.1,0000.0,0010.20,0002.54,0001.49
2021-10-23 21:07:00,,0816.0,5.00,0.00,30.0,29.3,00.0,39.1,31.8,06.2,0000.0,0010.06,0002.58,0001.50
2021-10-23 21:08:00,,0816.0,5.00,0.00,30.0,29.3,00.0,39.1,31.8,06.2,0000.0,0010.12,0002.62,0001.52
2021-10-23 21:09:00,,0816.0,4.99,0.00,30.0,29.4,00.0,39.1,31.8,06.2,0000.0,0009.59,0002.58,0001.50
2021-10-23 21:10:00,,0816.0,5.00,0.00,30.0,29.4,00.0,39.1,31.8,06.2,0000.0,0009.42,0002.58,0001.50
2021-10-23 21:11:00,,0816.0,5.02,0.00,30.0,29.4,00.0,39.1,31.8,06.1,0000.0,0010.00,0002.59,0001.48
2021-10-23 21:12:00,,0816.0,5.01,0.00,30.0,29.4,00.0,39.1,31.7,06.1,0000.0,0009.79,0002.56,0001.47
2021-10-23 21:13:00,,0816.0,4.99,0.00,30.0,29.4,00.0,39.1,31.7,06.2,0000.0,0009.63,0002.54,0001.45
2021-10-23 21:14:00,,0816.0,4.99,0.00,30.0,29.4,00.0,39.1,31.7,06.2,0000.0,0009.45,0002.56,0001.45
2021-10-23 21:15:00,,0816.0,5.01,0.00,30.0,29.3,00.0,39.1,31.7,06.3,0000.0,0008.92,0002.60,0001.44
2021-10-23 21:16:00,,0816.0,4.99,0.00,30.0,29.3,00.0,39.1,31.7,06.3,0000.0,0008.55,0002.61,0001.43
2021-10-23 21:17:00,,0816.0,5.01,0.00,30.0,29.3,00.0,39.1,31.7,06.2,0000.0,0008.53,0002.55,0001.42
2021-10-23 21:18:00,,0816.0,4.99,0.00,30.0,29.4,00.0,39.1,31.8,06.2,0000.0,0008.36,0002.46,0001.41
2021-10-23 21:19:00,,0816.0,5.00,0.00,30.0,29.4,00.0,39.1,31.7,06.2,0000.0,0008.53,0002.43,0001.39
2021-10-23 21:20:00,,0816.0,4.99,0.00,30.0,29.3,00.0,39.1,31.7,06.2,0000.0,0008.60,0002.42,0001.39
2021-10-23 21:21:00,,0816.1,5.00,0.00,30.0,29.4,00.0,39.1,31.7,06.3,0000.0,0008.49,0002.37,0001.38
2021-10-23 21:22:00,,0816.0,5.00,0.00,30.0,29.4,00.0,39.1,31.8,06.3,0000.0,0008.38,0002.36,0001.39
2021-10-23 21:23:00,,0816.1,5.01,0.00,30.0,29.4,00.0,39.1,31.8,06.3,0000.0,0008.31,0002.33,0001.39
2021-10-23 21:24:00,,0816.1,5.01,0.00,30.0,29.5,00.0,39.1,31.8,06.4,0000.0,0008.58,0002.37,0001.40
2021-10-23 21:25:00,,0816.1,5.00,0.00,30.1,29.5,00.0,39.1,31.9,06.4,0000.0,0008.58,0002.30,0001.40
2021-10-23 21:26:00,,0816.1,5.00,0.00,30.1,29.5,00.0,39.1,31.9,06.3,0000.0,0008.40,0002.26,0001.40
2021-10-23 21:27:00,,0816.1,5.00,0.00,30.1,29.5,00.0,39.1,31.9,06.2,0000.0,0008.49,0002.29,0001.40
2021-10-23 21:28:00,,0816.2,5.00,0.00,30.1,29.6,00.0,39.2,31.9,06.2,0000.0,0008.15,0002.34,0001.40
2021-10-23 21:29:00,,0816.2,4.99,0.00,30.1,29.6,00.0,39.2,31.9,06.3,0000.0,0008.50,0002.40,0001.40
2021-10-23 21:30:00,,0816.2,4.99,0.00,30.2,29.6,00.0,39.2,31.9,06.2,0000.0,0008.65,0002.45,0001.41
2021-10-23 21:31:00,,0816.2,5.01,0.00,30.2,29.6,00.0,39.2,31.9,06.2,0000.0,0008.47,0002.43,0001.41
2021-10-23 21:32:00,,0816.1,5.01,0.00,30.2,29.3,00.0,39.2,31.9,06.2,0000.0,0008.84,0002.45,0001.41
2021-10-23 21:33:00,,0816.1,5.00,0.00,30.1,27.2,00.0,39.2,31.5,06.2,0000.0,0008.53,0002.42,0001.39
2021-10-23 21:34:00,,0816.1,4.99,0.00,30.0,25.9,00.0,39.1,31.2,06.1,0000.0,0008.61,0002.45,0001.38
2021-10-23 21:35:00,,0816.0,5.01,0.00,29.9,26.1,00.0,39.1,31.2,06.1,0000.0,0008.29,0002.43,0001.38
2021-10-23 21:36:00,,0816.1,5.01,0.00,29.8,26.6,00.0,39.0,31.3,06.2,0000.0,0007.93,0002.47,0001.37
2021-10-23 21:37:00,,0816.1,5.00,0.00,29.8,27.1,00.0,39.0,31.3,06.2,0000.0,0008.95,0002.47,0001.36
2021-10-23 21:38:00,,0816.1,5.00,0.00,29.7,27.5,00.0,38.9,31.3,06.1,0000.0,0009.03,0002.41,0001.36
2021-10-23 21:39:00,,0816.1,5.01,0.00,29.7,27.8,00.0,38.9,31.4,06.1,0000.0,0009.33,0002.40,0001.37
2021-10-23 21:40:00,,0816.1,5.00,0.00,29.8,28.1,00.0,38.9,31.4,06.1,0000.0,0008.92,0002.38,0001.37
2021-10-23 21:41:00,,0816.2,4.99,0.00,29.8,28.3,00.0,38.9,31.5,06.1,0000.0,0008.56,0002.32,0001.35
2021-10-23 21:42:00,,0816.1,5.00,0.00,29.8,28.5,00.0,38.9,31.5,06.1,0000.0,0008.48,0002.32,0001.34
2021-10-23 21:43:00,,0816.1,4.99,0.00,29.8,28.6,00.0,38.9,31.5,06.2,0000.0,0008.34,0002.36,0001.34
2021-10-23 21:44:00,,0816.0,5.00,0.00,29.8,28.7,00.0,38.9,31.5,06.2,0000.0,0008.28,0002.40,0001.34
2021-10-23 21:45:00,,0816.0,5.01,0.00,29.8,28.8,00.0,38.9,31.6,06.2,0000.0,0008.27,0002.38,0001.33
2021-10-23 21:46:00,,0816.0,4.99,0.00,29.9,28.9,00.0,38.9,31.7,06.2,0000.0,0008.98,0002.35,0001.35
2021-10-23 21:47:00,,0816.0,5.00,0.00,29.9,29.0,00.0,38.9,31.7,06.3,0000.0,0009.63,0002.35,0001.36
2021-10-23 21:48:00,,0816.1,5.00,0.00,29.9,29.0,00.0,38.9,31.7,06.3,0000.0,0009.76,0002.41,0001.37
2021-10-23 21:49:00,,0816.1,5.00,0.00,29.9,29.1,00.0,38.9,31.7,06.4,0000.0,0009.25,0002.56,0001.39
2021-10-23 21:50:00,,0816.1,4.99,0.00,29.9,29.1,00.0,38.9,31.7,06.3,0000.0,0009.40,0002.62,0001.39
2021-10-23 21:51:00,,0816.2,5.00,0.00,29.9,29.2,00.0,38.9,31.7,06.4,0000.0,0009.46,0002.58,0001.40
2021-10-23 21:52:00,,0816.2,5.01,0.00,30.0,29.2,00.0,38.9,31.7,06.4,0000.0,0009.58,0002.60,0001.42
2021-10-23 21:53:00,,0816.1,5.00,0.00,30.0,29.3,00.0,39.0,31.8,06.4,0000.0,0010.24,0002.63,0001.45
2021-10-23 21:54:00,,0816.2,5.00,0.00,30.0,29.3,00.0,39.0,31.8,06.4,0000.0,0010.31,0002.60,0001.46
2021-10-23 21:55:00,,0816.2,5.00,0.00,30.0,29.3,00.0,39.0,31.9,06.3,0000.0,0010.40,0002.57,0001.48
2021-10-23 21:56:00,,0816.2,5.01,0.00,30.1,29.4,00.0,39.0,31.9,06.4,0000.0,0010.80,0002.66,0001.49
2021-10-23 21:57:00,,0816.2,5.00,0.00,30.1,29.4,00.0,39.0,31.9,06.4,0000.0,0010.41,0002.69,0001.50
2021-10-23 21:58:00,,0816.1,4.99,0.00,30.1,29.4,00.0,39.1,31.9,06.4,0000.0,0009.94,0002.72,0001.50
2021-10-23 21:59:00,,0816.2,5.01,0.00,30.2,29.5,00.0,39.1,31.9,06.4,0000.0,0009.25,0002.70,0001.51
